Date,TemperatureHighF,TemperatureAvgF,TemperatureLowF,DewpointHighF,DewpointAvgF,DewpointLowF,HumidityHigh,HumidityAvg,HumidityLow,PressureMaxIn,PressureMinIn,WindSpeedMaxMPH,WindSpeedAvgMPH,GustSpeedMaxMPH,PrecipitationSumIn
2013-1-1,12,0,-6,2,-4,-9,91,83,61,0.00,40.00,2,0,7,0.00
2013-1-2,14,3,-5,5,-1,-9,90,82,60,0.00,40.00,4,1,13,0.00
2013-1-3,21,11,-3,-5,-10,-17,71,40,24,0.00,40.00,6,3,12,0.00
2013-1-4,32,18,8,10,-2,-15,79,42,25,0.00,40.00,6,3,14,0.00
2013-1-5,34,17,6,2,-6,-16,62,39,15,0.00,40.00,4,1,10,0.00
2013-1-6,29,21,13,-4,-8,-13,38,26,18,0.00,40.00,11,8,24,0.00
2013-1-7,34,19,9,-4,-12,-100,48,27,12,0.00,40.00,8,2,14,0.00
2013-1-8,31,18,10,16,6,-7,80,60,34,0.00,40.00,4,2,8,0.00
2013-1-9,37,25,15,11,6,0,71,46,24,0.00,40.00,11,6,23,0.00
2013-1-10,26,22,17,18,6,-4,96,56,28,0.00,40.00,14,10,35,0.00
2013-1-11,17,3,-7,16,0,-10,95,87,76,0.00,40.00,17,9,47,0.00
2013-1-12,0,-8,-17,-6,-13,-21,85,80,61,0.00,40.00,6,3,13,0.00
2013-1-13,-13,-14,-14,-16,-16,-17,84,84,83,0.00,40.00,5,5,9,0.00
2013-1-14,0,-11,-18,-7,-16,-23,84,78,63,0.00,40.00,5,2,7,0.00
2013-1-15,12,-2,-19,8,-6,-23,92,83,72,0.00,40.00,3,2,13,0.00
2013-1-16,24,15,7,14,10,4,94,80,58,0.00,40.00,3,2,10,0.00
2013-1-17,37,20,10,21,8,3,88,63,30,0.00,40.00,5,3,14,0.00
2013-1-18,35,16,7,7,-2,-100,88,57,17,0.00,40.00,2,1,8,0.00
2013-1-19,32,16,10,3,-2,-11,69,49,19,0.00,40.00,2,1,7,0.00
2013-1-20,31,21,9,2,-8,-100,54,33,15,0.00,40.00,3,1,9,0.00
2013-1-21,34,21,11,1,-10,-100,61,31,13,0.00,40.00,3,1,11,0.00
2013-1-22,42,27,17,-5,-29,-100,33,14,5,0.00,40.00,4,2,9,0.00
2013-1-23,42,29,19,-2,-9,-24,28,18,10,0.00,40.00,11,6,20,0.00
2013-1-24,29,27,25,26,16,-6,99,69,20,0.00,40.00,13,8,28,0.00
2013-1-25,30,26,25,27,26,24,99,97,89,0.00,40.00,5,4,16,0.00
2013-1-26,32,26,24,30,26,23,99,97,90,0.00,40.00,10,6,21,0.00
2013-1-27,27,24,22,26,23,21,98,98,97,0.00,40.00,14,9,31,0.00
2013-1-28,23,16,4,22,15,2,98,95,91,0.00,40.00,15,8,39,0.00
2013-1-29,11,2,-8,8,-1,-11,90,89,86,0.00,40.00,3,2,12,0.00
2013-1-30,14,7,-1,12,5,-4,94,91,88,0.00,40.00,5,3,17,0.00
2013-1-31,27,18,13,25,16,12,95,94,92,0.00,40.00,5,3,11,0.00
2013-2-1,13,12,12,12,12,11,94,94,94,0.00,40.00,7,6,13,0.00
2013-2-2,36,19,6,15,0,-100,92,61,16,0.00,40.00,5,2,10,0.00
2013-2-3,27,18,9,20,8,-4,94,67,27,0.00,40.00,8,4,20,0.00
2013-2-4,31,15,7,5,2,-8,90,62,23,0.00,40.00,3,1,7,0.00
2013-2-5,41,24,11,20,13,7,87,64,34,0.00,40.00,9,3,16,0.00
2013-2-6,29,22,15,21,15,9,96,77,53,0.00,40.00,10,4,16,0.00
2013-2-7,32,17,1,13,2,-16,95,60,12,0.00,40.00,7,4,16,0.00
2013-2-8,26,21,16,19,10,5,91,62,46,0.00,40.00,16,10,30,0.00
2013-2-9,18,12,7,12,9,5,92,87,71,0.00,40.00,10,4,26,0.00
2013-2-10,20,8,-1,19,6,-4,98,90,85,0.00,40.00,4,2,11,0.00
2013-2-11,7,7,6,6,5,4,92,91,91,0.00,40.00,3,3,11,0.00
2013-2-12,16,4,-8,13,0,-11,91,86,73,0.00,40.00,2,1,10,0.00
2013-2-13,20,12,7,16,9,5,94,87,71,0.00,40.00,4,2,15,0.00
2013-2-14,16,11,5,12,9,3,95,90,77,0.00,40.00,3,2,11,0.00
2013-2-15,10,8,6,9,6,4,94,91,88,0.00,40.00,1,1,8,0.00
2013-2-16,34,22,10,8,2,-7,80,45,25,0.00,40.00,5,2,14,0.00
2013-2-17,28,20,12,14,2,-7,94,48,28,0.00,40.00,12,8,24,0.00
2013-2-18,19,9,-3,9,1,-8,91,72,32,0.00,40.00,9,4,14,0.00
2013-2-19,25,17,8,4,-6,-22,48,36,18,0.00,40.00,12,8,26,0.00
2013-2-20,23,17,13,15,8,-1,94,68,44,0.00,40.00,8,4,21,0.00
2013-2-21,18,12,5,17,10,4,95,93,91,0.00,40.00,3,2,13,0.00
2013-2-22,17,6,-4,14,3,-7,91,88,83,0.00,40.00,3,1,11,0.00
2013-2-23,18,8,-2,15,6,-4,93,89,80,0.00,40.00,12,7,24,0.00
2013-2-24,10,5,-2,8,3,-5,92,89,85,0.00,40.00,5,3,13,0.00
2013-2-25,23,11,-4,21,4,-6,97,76,41,0.00,40.00,6,2,16,0.00
2013-2-26,12,7,3,8,5,1,92,89,73,0.00,40.00,5,3,14,0.00
2013-2-27,21,6,-7,16,1,-10,90,79,55,0.00,40.00,2,1,8,0.00
2013-2-28,22,10,-3,10,1,-7,93,71,37,0.00,40.00,2,1,9,0.00
2013-3-1,24,17,12,19,15,10,97,93,77,0.00,40.00,4,2,12,0.00
2013-3-2,42,26,13,20,14,12,96,66,30,0.00,40.00,8,3,15,0.00
2013-3-3,29,26,23,25,19,15,97,75,61,0.00,40.00,11,7,20,0.00
2013-3-4,24,16,-4,23,15,-7,98,94,87,0.00,40.00,4,2,17,0.00
2013-3-5,33,18,-5,3,-6,-100,88,44,11,0.00,40.00,12,6,23,0.00
2013-3-6,36,29,25,15,10,5,53,44,35,0.00,40.00,13,11,26,0.00
2013-3-7,36,30,25,15,8,3,61,41,24,0.00,40.00,16,11,32,0.00
2013-3-9,20,16,10,18,14,8,97,92,82,0.00,40.00,7,3,17,0.00
2013-3-10,16,8,5,10,6,3,92,89,78,0.00,40.00,5,3,13,0.00
2013-3-11,31,24,10,18,13,4,88,65,37,0.00,40.00,4,2,12,0.00
2013-3-12,36,26,19,22,18,12,96,76,37,0.00,40.00,4,2,12,0.00
2013-3-13,41,29,17,20,14,4,96,61,21,0.00,40.00,3,2,9,0.00
2013-3-14,47,35,21,19,13,7,84,44,20,0.00,40.00,4,2,13,0.00
2013-3-15,48,40,31,18,13,8,45,33,24,0.00,40.00,6,4,16,0.00
2013-3-16,37,32,26,28,22,12,89,66,35,0.00,40.00,5,3,18,0.00
2013-3-17,31,24,17,21,14,0,95,67,41,0.00,40.00,7,4,20,0.00
2013-3-18,27,19,12,8,4,-2,72,51,39,0.00,40.00,6,4,21,0.00
2013-3-19,31,22,13,9,-4,-100,66,38,11,0.00,40.00,4,2,12,0.00
2013-3-20,31,23,15,23,7,-12,86,52,29,0.00,40.00,11,8,24,0.00
2013-3-21,27,21,7,24,17,3,98,84,48,0.00,40.00,8,4,30,0.00
2013-3-22,27,16,8,13,2,-8,94,58,34,0.00,40.00,10,4,25,0.00
2013-3-23,7,2,-6,5,-2,-12,91,83,69,0.00,40.00,4,2,14,0.00
2013-3-24,13,2,-9,6,-5,-12,89,76,39,0.00,40.00,3,2,12,0.00
2013-3-25,23,8,-7,4,-5,-11,86,58,23,0.00,40.00,5,2,13,0.00
2013-3-26,36,25,9,15,9,1,77,53,31,0.00,40.00,10,6,22,0.00
2013-3-27,39,30,19,14,10,7,68,44,27,0.00,40.00,6,4,18,0.00
2013-3-28,41,32,23,18,11,8,62,43,27,0.00,40.00,7,4,16,0.00
2013-3-29,43,34,26,25,18,12,79,55,31,0.00,40.00,5,3,17,0.00
2013-3-30,42,33,26,26,17,-100,80,57,31,0.00,40.00,4,2,14,0.00
2013-3-31,44,32,19,19,14,8,83,51,22,0.00,40.00,4,2,16,0.00
2013-4-1,39,32,26,25,18,10,96,59,32,0.00,40.00,10,6,24,0.00
2013-4-2,33,27,22,28,21,12,97,80,44,0.00,40.00,5,3,15,0.00
2013-4-3,41,29,19,24,20,15,99,72,36,0.00,40.00,3,2,13,0.00
2013-4-4,43,33,20,17,15,11,79,50,28,0.00,40.00,7,3,15,0.00
2013-4-5,41,36,29,30,18,12,93,51,36,0.00,40.00,12,6,26,0.00
2013-4-6,41,31,23,28,16,-100,98,63,26,0.00,40.00,5,3,16,0.00
2013-4-7,39,32,25,23,17,10,87,57,30,0.00,40.00,7,3,20,0.00
2013-4-8,35,29,21,27,18,9,98,69,41,0.00,40.00,11,7,30,0.00
2013-4-9,23,17,7,21,15,4,97,92,79,0.00,40.00,8,3,21,0.00
2013-4-10,19,10,3,13,6,0,93,84,67,0.00,40.00,4,2,12,0.00
2013-4-11,32,23,15,24,20,13,97,88,63,0.00,40.00,3,2,15,0.00
2013-4-12,40,28,19,23,18,4,97,71,23,0.00,40.00,3,2,11,0.00
2013-4-13,39,30,20,30,14,2,99,54,30,0.00,40.00,14,9,31,0.00
2013-4-14,28,23,15,28,16,8,99,77,45,0.00,40.00,10,4,21,0.00
2013-4-15,28,25,22,25,21,12,98,88,55,0.00,40.00,14,7,31,0.00
2013-4-16,27,27,26,23,22,21,82,81,80,0.00,40.00,14,12,33,0.00
2013-4-22,40,32,23,24,16,11,97,54,31,0.00,40.00,6,4,22,0.00
2013-4-23,23,18,10,21,9,1,97,70,39,0.00,40.00,4,2,14,0.00
2013-4-24,35,24,9,4,1,-4,63,38,23,0.00,40.00,6,3,13,0.00
2013-4-25,45,32,19,15,5,-3,56,33,18,0.00,40.00,9,5,21,0.00
2013-4-26,45,34,24,16,8,-1,58,36,14,0.00,40.00,5,2,11,0.00
2013-4-27,47,36,23,16,9,1,58,35,16,0.00,40.00,3,2,12,0.00
2013-4-28,51,41,26,20,12,-5,50,31,15,0.00,40.00,4,2,13,0.00
2013-4-29,52,44,34,22,16,12,53,34,20,0.00,40.00,5,3,15,0.00
2013-4-30,49,44,33,32,17,12,96,36,26,0.00,40.00,9,6,24,0.00
2013-5-1,30,24,14,29,18,11,100,80,52,0.00,40.00,3,2,15,0.00
2013-5-2,32,20,7,11,4,-1,95,56,26,0.00,40.00,4,2,14,0.00
2013-5-3,45,31,13,11,1,-100,61,34,12,0.00,40.00,4,2,10,0.00
2013-5-4,47,36,24,13,5,-4,42,27,16,0.00,40.00,7,4,16,0.00
2013-5-5,44,39,34,20,15,8,49,38,23,0.00,40.00,8,6,23,0.00
2013-5-6,42,34,29,35,28,18,98,80,49,0.00,40.00,7,4,15,0.00
2013-5-7,36,30,27,32,29,27,99,93,70,0.00,40.00,8,5,18,0.00
2013-5-8,35,29,25,29,27,24,98,91,80,0.00,40.00,6,3,13,0.00
2013-5-9,42,33,26,34,28,24,98,83,55,0.00,40.00,4,2,13,0.00
2013-5-10,45,34,24,30,23,-100,99,68,33,0.00,40.00,4,3,19,0.00
2013-5-11,50,39,28,27,19,-100,80,50,27,0.00,40.00,6,3,13,0.00
2013-5-12,52,43,33,30,25,20,75,50,33,0.00,40.00,3,2,12,0.00
2013-5-13,58,47,34,29,24,16,72,44,25,0.00,40.00,5,2,10,0.00
2013-5-14,59,48,37,33,26,19,67,44,23,0.00,40.00,6,3,13,0.00
2013-5-15,56,44,35,38,30,25,96,61,30,0.00,40.00,8,3,20,0.00
2013-5-16,54,38,33,32,8,-100,88,53,29,0.00,40.00,9,6,19,0.00
2013-5-17,50,44,37,18,11,-100,40,29,18,0.00,40.00,12,8,28,0.00
2013-5-18,43,37,30,38,25,13,97,65,31,0.00,40.00,9,5,23,0.00
2013-5-19,40,32,27,29,24,17,97,76,41,0.00,40.00,3,2,13,0.00
2013-5-20,35,30,23,32,27,23,98,90,73,0.00,40.00,3,2,13,0.00
2013-5-21,47,36,25,28,24,16,98,65,29,0.00,40.00,4,2,13,0.00
2013-5-22,53,44,32,25,19,15,70,40,21,0.00,40.00,10,7,23,0.00
2013-5-23,56,48,40,18,12,6,39,24,13,0.00,40.00,16,10,37,0.00
2013-5-24,53,46,38,16,11,7,39,24,16,0.00,40.00,15,9,29,0.00
2013-5-25,56,47,40,15,9,5,27,21,14,0.00,40.00,10,8,22,0.00
2013-5-26,55,47,36,17,11,4,43,24,14,0.00,40.00,9,6,21,0.00
2013-5-27,54,46,36,20,12,3,47,25,18,0.00,40.00,8,4,16,0.00
2013-5-28,48,42,34,33,18,9,97,40,29,0.00,40.00,11,6,25,0.00
2013-5-29,40,34,28,32,26,18,99,75,46,0.00,40.00,8,4,22,0.00
2013-5-30,43,36,29,23,19,14,74,52,30,0.00,40.00,6,4,22,0.00
2013-5-31,46,37,31,21,12,-3,66,39,13,0.00,40.00,5,3,19,0.00
2013-6-1,51,38,25,32,19,12,77,49,25,0.00,40.00,3,2,12,0.00
2013-6-2,59,47,33,23,15,11,45,28,15,0.00,40.00,8,6,18,0.00
2013-6-3,58,52,45,32,19,11,51,27,19,0.00,40.00,8,6,21,0.00
2013-6-4,60,50,40,32,22,10,54,35,21,0.00,40.00,6,3,22,0.00
2013-6-5,56,49,40,28,24,17,54,38,25,0.00,40.00,5,2,20,0.00
2013-6-6,59,48,36,31,24,16,60,40,25,0.00,40.00,3,2,12,0.00
2013-6-7,60,48,37,32,26,21,62,45,29,0.00,40.00,3,2,15,0.00
2013-6-8,62,52,40,35,30,24,68,45,25,0.00,40.00,3,2,13,0.00
2013-6-9,67,54,39,31,25,21,59,35,17,0.00,40.00,3,2,12,0.00
2013-6-10,70,60,47,25,20,12,38,23,13,0.00,40.00,10,7,26,0.00
2013-6-11,64,55,46,25,16,10,41,22,14,0.00,40.00,15,8,37,0.00
2013-6-12,65,55,42,21,14,-100,42,24,13,0.00,40.00,11,6,26,0.00
2013-6-13,62,57,52,32,22,17,40,26,21,0.00,40.00,12,9,29,0.00
2013-6-14,63,53,41,32,-8,-100,51,22,11,0.00,40.00,8,5,20,0.00
2013-6-15,60,50,38,43,18,6,70,30,17,0.00,40.00,7,5,22,0.00
2013-6-16,58,51,45,39,31,27,79,48,32,0.00,40.00,7,4,20,0.00
2013-6-17,62,52,41,37,22,-100,67,38,18,0.00,40.00,6,3,15,0.00
2013-6-18,62,55,47,24,18,3,39,25,11,0.00,40.00,10,6,30,0.00
2013-6-19,63,55,49,16,8,3,22,15,9,0.00,40.00,14,9,35,0.00
2013-6-20,58,49,41,14,10,7,28,20,15,0.00,40.00,13,7,28,0.00
2013-6-22,61,56,44,20,16,10,34,21,14,0.00,40.00,10,6,23,0.00
2013-6-23,62,52,36,21,16,6,48,26,14,0.00,40.00,10,5,21,0.00
2013-6-24,57,52,46,20,14,8,29,22,16,0.00,40.00,11,8,26,0.00
2013-6-25,62,52,45,35,24,15,56,34,22,0.00,40.00,8,4,19,0.00
2013-6-26,70,57,44,34,28,23,55,36,17,0.00,40.00,6,4,16,0.00
2013-6-27,73,61,47,32,28,22,45,29,19,0.00,40.00,4,2,14,0.00
2013-6-28,76,62,50,45,30,19,71,33,14,0.00,40.00,9,3,27,0.00
2013-6-29,72,61,52,39,34,29,52,37,21,0.00,40.00,6,3,14,0.00
2013-6-30,67,58,47,41,36,30,63,44,30,0.00,40.00,5,2,17,0.00
2013-7-1,69,59,45,37,32,27,53,37,22,0.00,40.00,6,3,18,0.00
2013-7-2,66,59,52,38,31,23,43,35,26,0.00,40.00,4,3,15,0.00
2013-7-3,68,56,45,39,31,24,54,39,22,0.00,40.00,5,2,18,0.00
2013-7-4,52,51,49,35,35,34,57,53,49,0.00,40.00,2,1,9,0.00
2013-7-6,66,59,53,41,38,35,61,46,31,0.00,40.00,3,2,13,0.00
2013-7-7,67,57,46,44,39,34,74,53,31,0.00,40.00,5,3,12,0.00
2013-7-8,67,55,45,42,36,25,77,53,21,0.00,40.00,7,4,17,0.00
2013-7-9,71,61,49,36,25,-100,62,34,14,0.00,40.00,3,2,11,0.00
2013-7-10,73,60,51,36,25,-100,43,28,15,0.00,40.00,5,3,13,0.00
2013-7-11,68,57,48,54,38,20,90,51,27,0.00,40.00,8,6,20,0.00
2013-7-12,62,54,47,50,45,41,93,73,47,0.00,40.00,8,5,22,0.00
2013-7-13,65,54,45,47,44,37,93,71,36,0.00,40.00,7,4,15,0.00
2013-7-14,63,56,46,52,44,39,92,67,48,0.00,40.00,4,2,12,0.00
2013-7-15,67,55,49,58,43,39,85,64,38,0.00,40.00,7,4,17,0.00
2013-7-16,63,55,44,49,46,41,95,72,45,0.00,40.00,6,3,14,0.00
2013-7-17,63,54,46,55,48,45,95,82,56,0.00,40.00,5,3,13,0.00
2013-7-18,65,53,43,55,46,42,94,79,48,0.00,40.00,7,4,16,0.00
2013-7-19,66,54,44,51,44,38,96,71,36,0.00,40.00,6,3,12,0.00
2013-7-20,68,56,45,44,36,-100,85,52,26,0.00,40.00,4,2,11,0.00
2013-7-21,70,59,46,34,9,-100,56,32,15,0.00,40.00,4,2,11,0.00
2013-7-22,70,60,51,39,30,-100,60,37,17,0.00,40.00,3,2,12,0.00
2013-7-23,72,61,49,33,23,-100,48,27,13,0.00,40.00,5,3,14,0.00
2013-7-24,63,56,49,42,36,28,72,48,32,0.00,40.00,9,5,30,0.00
2013-7-25,65,56,48,45,40,32,75,56,29,0.00,40.00,7,3,16,0.00
2013-7-26,68,57,44,39,35,29,74,48,24,0.00,40.00,3,2,12,0.00
2013-7-27,62,54,47,46,40,28,95,61,41,0.00,40.00,8,5,17,0.00
2013-7-28,57,48,45,52,46,43,97,90,64,0.00,40.00,7,4,16,0.00
2013-7-29,56,48,42,45,40,29,96,76,46,0.00,40.00,7,4,21,0.00
2013-7-30,61,52,42,41,36,29,82,57,32,0.00,40.00,7,4,17,0.00
2013-7-31,65,54,43,40,34,29,65,47,27,0.00,40.00,6,3,14,0.00
2013-8-1,55,49,46,46,38,-100,95,75,50,0.00,40.00,8,5,20,0.00
2013-8-2,59,52,44,52,45,41,92,78,56,0.00,40.00,8,4,21,0.00
2013-8-3,60,52,46,51,45,41,89,77,51,0.00,40.00,7,4,18,0.00
2013-8-4,64,53,45,47,40,37,82,62,39,0.00,40.00,6,4,14,0.00
2013-8-5,59,53,45,47,42,36,84,66,45,0.00,40.00,4,3,11,0.00
2013-8-6,59,50,44,45,40,33,85,69,50,0.00,40.00,4,3,13,0.00
2013-8-7,55,49,42,46,39,35,80,69,50,0.00,40.00,4,2,10,0.00
2013-8-8,58,48,43,44,37,32,82,65,41,0.00,40.00,6,2,14,0.00
2013-8-9,58,48,39,39,36,32,86,66,44,0.00,40.00,6,4,16,0.00
2013-8-10,56,48,40,42,35,28,88,62,34,0.00,40.00,8,5,21,0.00
2013-8-11,56,47,40,45,37,33,86,68,46,0.00,40.00,7,4,19,0.00
2013-8-12,57,48,40,41,35,32,79,62,40,0.00,40.00,5,3,14,0.00
2013-8-13,60,48,38,38,31,-100,91,57,21,0.00,40.00,6,3,14,0.00
2013-8-14,62,51,40,33,22,-100,68,44,16,0.00,40.00,5,2,13,0.00
2013-8-15,65,51,42,27,17,-100,49,31,17,0.00,40.00,3,2,12,0.00
2013-8-16,67,55,43,31,19,-100,42,28,15,0.00,40.00,5,2,13,0.00
2013-8-17,68,55,45,41,27,-100,61,37,21,0.00,40.00,6,2,16,0.00
2013-8-18,63,53,45,49,40,35,75,61,36,0.00,40.00,5,3,12,0.00
2013-8-19,65,51,44,54,30,-100,78,56,33,0.00,40.00,6,2,16,0.00
2013-8-20,55,54,54,38,37,36,53,51,49,0.00,40.00,5,5,12,0.00
2013-8-22,61,55,47,47,44,42,80,68,52,0.00,40.00,3,2,14,0.00
2013-8-23,60,52,47,45,42,36,85,68,41,0.00,40.00,9,5,29,0.00
2013-8-24,58,48,46,47,37,-100,89,71,45,0.00,40.00,8,5,18,0.00
2013-8-25,51,48,45,47,44,40,96,89,80,0.00,40.00,7,4,20,0.00
2013-8-26,57,49,45,50,46,43,97,89,70,0.00,40.00,11,6,23,0.00
2013-8-27,59,51,47,48,45,42,94,81,56,0.00,40.00,7,5,15,0.00
2013-8-28,63,59,49,47,42,38,73,54,39,0.00,40.00,5,3,13,0.00
2013-8-29,67,55,43,46,40,33,82,60,28,0.00,40.00,3,1,11,0.00
2013-8-30,64,56,51,46,42,39,73,61,45,0.00,40.00,6,2,14,0.00
2013-8-31,60,52,47,54,42,-100,87,73,53,0.00,40.00,5,1,9,0.00
2013-9-1,65,54,45,50,43,39,90,66,38,0.00,40.00,7,4,14,0.00
2013-9-2,63,54,48,48,43,38,79,67,41,0.00,40.00,8,5,17,0.00
2013-9-3,64,54,44,49,44,41,94,70,47,0.00,40.00,3,1,10,0.00
2013-9-4,66,56,49,48,43,38,79,61,35,0.00,40.00,5,2,12,0.00
2013-9-5,67,58,50,49,42,39,84,55,39,0.00,40.00,7,4,15,0.00
2013-9-6,67,56,45,47,38,31,92,54,27,0.00,40.00,6,3,13,0.00
2013-9-7,67,56,47,43,34,-100,66,47,25,0.00,40.00,8,3,24,0.00
2013-9-8,59,52,47,46,41,37,84,65,49,0.00,40.00,7,4,20,0.00
2013-9-9,48,46,44,46,43,41,96,91,85,0.00,40.00,7,4,18,0.00
2013-9-10,49,46,43,45,43,40,95,89,83,0.00,40.00,7,4,19,0.00
2013-9-11,52,46,43,48,43,41,94,88,69,0.00,40.00,6,3,14,0.00
2013-9-12,56,48,40,47,41,32,96,77,46,0.00,40.00,6,4,14,0.00
2013-9-13,52,46,40,42,40,36,96,78,55,0.00,40.00,8,4,16,0.00
2013-9-14,48,42,40,43,37,-100,97,88,76,0.00,40.00,8,5,18,0.00
2013-9-15,50,44,40,43,40,36,94,86,76,0.00,40.00,6,4,13,0.00
2013-9-16,56,46,41,43,40,35,94,78,54,0.00,40.00,8,4,14,0.00
2013-9-17,54,48,42,46,41,37,86,75,61,0.00,40.00,9,6,23,0.00
2013-9-18,48,45,40,44,41,37,92,85,73,0.00,40.00,10,8,25,0.00
2013-9-19,51,41,33,39,18,-100,98,64,24,0.00,40.00,4,2,11,0.00
2013-9-20,55,42,29,29,9,-100,63,40,18,0.00,40.00,7,4,14,0.00
2013-9-21,54,47,42,43,27,-100,88,49,36,0.00,40.00,10,7,26,0.00
2013-9-22,43,38,31,40,35,30,99,90,74,0.00,40.00,13,8,30,0.00
2013-9-23,43,33,29,34,30,27,100,89,58,0.00,40.00,4,1,8,0.00
2013-9-24,50,38,26,30,18,-100,98,61,21,0.00,40.00,13,6,27,0.00
2013-9-25,51,45,39,25,21,18,53,40,28,0.00,40.00,16,12,38,0.00
2013-9-26,48,43,37,32,20,16,66,41,29,0.00,40.00,15,12,35,0.00
2013-9-27,36,28,21,34,27,20,100,95,86,0.00,40.00,16,8,36,0.00
2013-9-28,41,27,15,29,18,-100,96,73,50,0.00,40.00,7,3,13,0.00
2013-9-29,46,37,28,21,15,6,71,42,26,0.00,40.00,10,8,19,0.00
2013-9-30,54,44,36,26,18,11,50,35,25,0.00,40.00,11,7,23,0.00
2013-10-1,54,46,40,27,21,16,49,38,23,0.00,40.00,8,5,16,0.00
2013-10-2,50,43,36,24,18,11,45,36,29,0.00,40.00,11,8,23,0.00
2013-10-3,43,38,21,35,23,16,98,57,36,0.00,40.00,15,10,31,0.00
2013-10-4,21,17,11,19,15,9,97,94,92,0.00,40.00,3,2,10,0.00
2013-10-5,32,21,13,22,15,8,95,81,53,0.00,40.00,3,2,11,0.00
2013-10-6,48,33,19,32,20,12,88,61,37,0.00,40.00,3,2,10,0.00
2013-10-7,52,40,28,25,-10,-100,62,35,11,0.00,40.00,11,4,21,0.00
2013-10-8,45,42,39,21,18,14,47,38,33,0.00,40.00,15,10,33,0.00
2013-10-9,42,38,34,24,18,11,59,45,29,0.00,40.00,9,6,24,0.00
2013-10-10,35,29,24,32,28,24,100,97,74,0.00,40.00,12,7,24,0.00
2013-10-11,34,27,24,34,27,24,99,97,87,0.00,40.00,7,4,16,0.00
2013-10-12,35,26,20,28,22,-100,97,87,75,0.00,40.00,10,4,23,0.00
2013-10-13,39,34,29,32,27,22,89,76,64,0.00,40.00,12,8,27,0.00
2013-10-14,32,26,23,29,25,23,99,95,89,0.00,40.00,6,3,21,0.00
2013-10-15,32,23,18,24,20,16,97,89,52,0.00,40.00,4,2,10,0.00
2013-10-16,32,22,13,19,16,12,97,79,51,0.00,40.00,5,2,11,0.00
2013-10-17,35,24,12,19,13,7,97,66,31,0.00,40.00,5,3,13,0.00
2013-10-18,29,21,15,21,14,5,97,76,36,0.00,40.00,3,2,11,0.00
2013-10-19,41,26,15,21,11,-100,92,59,25,0.00,40.00,4,2,10,0.00
2013-10-20,39,29,22,18,14,7,81,55,32,0.00,40.00,4,2,9,0.00
2013-10-23,29,28,28,19,17,14,69,61,56,0.00,40.00,3,2,4,0.00
2013-10-24,47,37,29,25,18,11,68,49,22,0.00,40.00,6,4,14,0.00
2013-10-25,43,35,27,28,22,15,88,60,40,0.00,40.00,4,2,13,0.00
2013-10-26,46,33,25,25,18,-100,92,60,29,0.00,40.00,2,1,8,0.00
2013-10-27,40,32,26,26,21,17,84,63,44,0.00,40.00,9,6,20,0.00
2013-10-28,38,34,30,23,18,13,71,54,37,0.00,40.00,16,9,36,0.00
2013-10-29,32,26,21,24,22,17,98,84,53,0.00,40.00,14,10,33,0.00
2013-10-30,22,19,16,20,18,15,97,93,86,0.00,40.00,10,5,21,0.00
2013-10-31,24,19,15,22,18,14,96,95,89,0.00,40.00,4,2,14,0.00
2013-11-1,30,22,15,22,20,14,97,90,66,0.00,40.00,4,2,11,0.00
2013-11-2,38,26,13,18,7,-100,93,53,28,0.00,40.00,13,8,27,0.00
2013-11-3,34,28,16,23,17,12,97,63,43,0.00,40.00,14,9,31,0.00
2013-11-4,28,19,10,20,13,4,94,76,50,0.00,40.00,11,8,24,0.00
2013-11-5,18,10,0,16,6,-4,95,84,46,0.00,40.00,2,1,8,0.00
2013-11-6,29,15,3,17,9,-4,92,76,54,0.00,40.00,4,2,14,0.00
2013-11-7,39,27,12,18,12,5,94,59,33,0.00,40.00,12,6,21,0.00
2013-11-8,40,32,26,17,12,8,55,44,31,0.00,40.00,15,9,28,0.00
2013-11-9,44,32,24,15,10,-100,62,43,26,0.00,40.00,6,4,16,0.00
2013-11-10,44,32,24,20,13,8,66,47,27,0.00,40.00,6,3,12,0.00
2013-11-11,45,31,21,19,12,8,68,47,21,0.00,40.00,2,1,8,0.00
2013-11-12,48,32,23,16,-4,-100,70,43,13,0.00,40.00,5,2,9,0.00
2013-11-13,39,32,27,20,14,9,67,47,32,0.00,40.00,8,5,15,0.00
2013-11-14,38,28,19,23,-3,-100,97,61,22,0.00,40.00,13,4,23,0.00
2013-11-15,28,24,19,22,16,9,97,72,48,0.00,40.00,13,8,27,0.00
2013-11-16,22,20,17,21,16,-100,97,93,90,0.00,40.00,17,10,36,0.00
2013-11-17,29,22,18,23,19,13,97,87,71,0.00,40.00,9,6,23,0.00
2013-11-18,42,24,11,27,15,8,95,71,27,0.00,40.00,10,3,17,0.00
2013-11-19,30,26,23,26,22,14,97,84,62,0.00,40.00,14,8,25,0.00
2013-11-20,31,25,19,25,22,17,98,91,73,0.00,40.00,6,3,12,0.00
2013-11-21,27,24,23,25,24,22,98,96,88,0.00,40.00,7,4,17,0.00
2013-11-22,27,25,21,26,23,20,98,93,85,0.00,40.00,7,5,17,0.00
2013-11-23,31,26,24,30,23,-100,98,97,93,0.00,40.00,6,5,15,0.00
2013-11-24,26,22,18,26,22,17,98,97,96,0.00,40.00,5,2,12,0.00
2013-11-25,26,18,11,21,16,10,97,92,79,0.00,40.00,5,2,13,0.00
2013-11-26,31,18,11,20,13,8,95,82,53,0.00,40.00,4,1,15,0.00
2013-11-27,42,22,11,25,12,4,89,68,26,0.00,40.00,4,1,6,0.00
2013-11-28,39,27,17,19,13,9,91,59,29,0.00,40.00,7,4,13,0.00
2013-11-29,32,23,17,20,15,12,93,73,50,0.00,40.00,11,7,20,0.00
2013-11-30,31,20,14,21,13,-100,95,80,52,0.00,40.00,10,6,18,0.00
2013-12-1,32,23,14,18,13,8,91,67,48,0.00,40.00,7,4,20,0.00
2013-12-2,29,25,23,20,17,12,87,70,55,0.00,40.00,11,7,23,0.00
2013-12-4,23,6,-14,22,3,-17,97,88,80,0.00,40.00,18,5,37,0.00
2013-12-5,2,-5,-15,-3,-11,-20,87,78,62,0.00,40.00,8,6,18,0.00
2013-12-7,7,4,1,5,-1,-100,92,86,79,0.00,40.00,17,12,33,0.00
2013-12-8,7,0,-10,5,-4,-14,91,86,82,0.00,40.00,8,4,19,0.00
2013-12-9,4,-6,-13,-7,-12,-17,86,75,42,0.00,40.00,3,1,10,0.00
2013-12-10,19,8,-6,7,1,-13,83,70,55,0.00,40.00,9,6,23,0.00
2013-12-11,26,12,6,12,4,-1,89,71,31,0.00,40.00,7,3,11,0.00
2013-12-12,35,20,12,15,5,-6,82,54,24,0.00,40.00,10,6,17,0.00
2013-12-13,29,17,7,12,7,0,94,68,32,0.00,40.00,5,2,12,0.00
2013-12-14,22,13,5,12,6,-100,93,79,59,0.00,40.00,3,1,11,0.00
2013-12-15,33,21,11,17,12,6,92,70,39,0.00,40.00,2,1,12,0.00
2013-12-16,38,23,16,18,13,8,90,69,33,0.00,40.00,4,2,8,0.00
2013-12-17,42,25,14,18,7,-2,82,50,20,0.00,40.00,8,3,15,0.00
2013-12-18,38,29,22,19,6,-1,65,40,22,0.00,40.00,12,7,23,0.00
2013-12-19,28,24,19,22,16,11,95,71,51,0.00,40.00,13,9,26,0.00
2013-12-20,22,16,6,19,15,4,96,94,81,0.00,40.00,10,4,23,0.00
2013-12-21,14,9,6,11,5,-100,94,89,83,0.00,40.00,6,3,14,0.00
2013-12-22,17,9,4,14,7,2,95,91,83,0.00,40.00,5,2,15,0.00
2013-12-23,29,16,11,19,13,9,95,88,67,0.00,40.00,7,3,14,0.00
2013-12-24,24,15,2,21,13,-1,95,91,82,0.00,40.00,6,3,20,0.00
2013-12-25,24,11,0,4,-2,-11,91,62,28,0.00,40.00,4,1,17,0.00
2013-12-26,32,20,10,12,3,-11,76,50,21,0.00,40.00,3,2,11,0.00
2013-12-27,37,24,15,20,14,5,88,68,37,0.00,40.00,2,1,8,0.00
2013-12-28,32,22,10,18,11,-100,92,68,45,0.00,40.00,4,2,10,0.00
2013-12-29,23,13,6,11,-10,-100,94,63,25,0.00,40.00,3,1,9,0.00
2013-12-30,29,19,13,14,8,-7,81,61,34,0.00,40.00,6,3,13,0.00
2013-12-31,29,23,20,20,15,6,97,71,53,0.00,40.00,6,4,16,0.00
2014-1-1,23,18,11,19,11,1,95,76,48,0.00,40.00,6,3,22,0.00
2014-1-2,34,22,12,1,-25,-100,55,28,14,0.00,40.00,5,2,13,0.00